Regional Weather Roundup
Issued by NWS Kansas City/Pleasant Hill, MO

Home | Current Version | Previous Version | Graphics & Text | Print | Product List | Glossary Off
Versions: 1 2 3 4 5 6 7 8 9 10 11 12 13 14 15 16 17 18 19 20 21 22 23 24 25 26 27 28 29 30 31 32 33 34 35 36 37 38 39 40 41 42 43 44 45 46 47 48 49 50

000
ASUS43 KEAX 231810
RWREAX

WEATHER ROUNDUP FOR EASTERN KANSAS AND NORTHWEST MISSOURI
NATIONAL WEATHER SERVICE KANSAS CITY/PLEASANT HILL MO
100 PM CDT THU OCT 23 2014

KSZ040-057-103>105-MOZ028-029-037-043-231900-
...KANSAS CITY METROPOLITAN AREA...

CITY           SKY/WX    TMP DP  RH WIND       PRES   REMARKS
K.C. INTL      DRIZZLE   63  61  93 SW8       30.09F FOG
6HR MIN TEMP:  55; 6HR MAX TEMP:  64; 6HR PCP:  0.01;

K.C. DOWNTOWN  CLOUDY    65  59  81 SW8       30.09F
6HR MIN TEMP:  58; 6HR MAX TEMP:  66; 6HR PCP: TRACE;

LEES SUMMIT    CLOUDY    64  59  83 SW9       30.11F
6HR MIN TEMP:  56; 6HR MAX TEMP:  64; 6HR PCP: TRACE;

OLATHE - IXD   CLOUDY    63  59  87 S10       30.11F
6HR MIN TEMP:  57; 6HR MAX TEMP:  64; 6HR PCP:  0.06;

OLATHE - OJC   CLOUDY    63  59  87 SW7       30.11S
6HR MIN TEMP:  57; 6HR MAX TEMP:  64; 6HR PCP:  0.07;

LAWRENCE       CLOUDY    63  59  87 SW9       30.10F FOG

$$

MOZ001>008-011>017-020>025-030>033-038>040-044>046-053-054-231900-
...NORTHERN AND CENTRAL MISSOURI...

CITY           SKY/WX    TMP DP  RH WIND       PRES   REMARKS
ST. JOSEPH     CLOUDY    66  61  84 SW8       30.08F
6HR MIN TEMP:  52; 6HR MAX TEMP:  66;

MOSBY          DRIZZLE   61  59  94 S5        30.09F
WHITEMAN AFB   PTSUNNY   64  57  78 SW10      30.12F
6HR MIN TEMP:  55; 6HR MAX TEMP:  64;

CLINTON        CLOUDY    63  57  82 S7        30.14F FOG
SEDALIA        CLOUDY    66  54  65 SW12      30.14F
6HR MIN TEMP:  54; 6HR MAX TEMP:  66;

WARSAW         NOT AVBL
MARSHALL       CLOUDY    66  57  72 SW10      30.12F
CHILLICOTHE      N/A     64  57  78 S10       30.10F
6HR MIN TEMP:  54; 6HR MAX TEMP:  64;

KIRKSVILLE     CLOUDY    65  55  70 S12       30.10F
6HR MIN TEMP:  51; 6HR MAX TEMP:  66;


$$

MOZ041-047>049-056>058-063>065-088>090-097-231900-
...EASTERN AND SOUTHERN MISSOURI...

CITY           SKY/WX    TMP DP  RH WIND       PRES   REMARKS
ST. LOUIS INTL CLOUDY    62  43  49 S7        30.18F
6HR MIN TEMP:  46; 6HR MAX TEMP:  62;

SPIRIT OF STL  CLOUDY    62  44  51 S7        30.16F
COLUMBIA       CLOUDY    57  48  72 S7        30.15F
JEFFERSON CITY CLOUDY    59  46  62 S6        30.15F
MEXICO         CLOUDY    61  52  72 SW8       30.14F
ROLLA          CLOUDY    60  46  59 S13       30.15F
LEBANON        CLOUDY    59  48  67 S5        30.16F
OSAGE BEACH    CLOUDY    61  48  63 S6        30.16F
SPRINGFIELD    CLOUDY    58  51  78 S9        30.15F
BRANSON        CLOUDY    64  48  55 SE5       30.19F
NEVADA         CLOUDY    61  59  94 SW12G17   30.14F
JOPLIN         CLOUDY    58  57  97 S9        30.16F
WEST PLAINS    CLOUDY    56  44  64 S5        30.19F

$$

IAZ060-094-KSZ022-034>040-054-083-096-NEZ052-066-093-231900-
...KANSAS...SOUTHEAST NEBRASKA AND IOWA...

CITY           SKY/WX    TMP DP  RH WIND       PRES   REMARKS
TOPEKA         CLOUDY    68  62  81 SW8       30.08F
6HR MIN TEMP:  61; 6HR MAX TEMP:  68; 6HR PCP:  0.01;

MANHATTAN      MOSUNNY   70  60  70 CALM      30.07F
EMPORIA        CLOUDY    66  61  84 SW10      30.10F
CHANUTE        CLOUDY    64  58  80 S12       30.13F
WICHITA        CLOUDY    69  60  73 S9        30.10F
OMAHA          SUNNY     64  55  72 SW5       30.06F
LINCOLN        PTSUNNY   64  57  78 SW8       30.09F
FALLS CITY     MOSUNNY   70  58  65 W5        30.06F
LAMONI         LGT RAIN  58  57  97 SW9       30.07F FOG
DES MOINES     CLOUDY    67  60  78 W10       30.04F

$$




USA.gov is the U.S. government's official web portal to all federal, state and local government web resources and services.